Time,TemperatureF,DewpointF,PressureIn,WindDirection,WindDirectionDegrees,WindSpeedMPH,WindSpeedGustMPH,Humidity,HourlyPrecipIn,Conditions,Clouds,dailyrainin,SoftwareType,DateUTC
2013-02-20 00:00:00,29.1,28.1,26.40,ESE,113,0.0,0.0,96,0.00,,,0.00,WeatherCatV1.02B3,2013-02-20 07:00:00,
2013-02-20 00:05:00,29.0,28.0,26.40,ESE,113,0.0,0.0,96,0.00,,,0.00,WeatherCatV1.02B3,2013-02-20 07:05:00,
2013-02-20 00:10:00,28.9,27.9,26.40,ESE,113,0.0,0.0,96,0.00,,,0.00,WeatherCatV1.02B3,2013-02-20 07:10:00,
2013-02-20 00:15:00,28.9,27.9,26.40,ESE,113,0.0,0.0,96,0.00,,,0.00,WeatherCatV1.02B3,2013-02-20 07:15:00,
2013-02-20 00:20:00,28.8,27.8,26.41,ESE,113,0.0,0.0,96,0.00,,,0.00,WeatherCatV1.02B3,2013-02-20 07:20:00,
2013-02-20 00:25:00,28.7,27.7,26.41,ESE,113,0.0,0.0,96,0.00,,,0.00,WeatherCatV1.02B3,2013-02-20 07:25:00,
2013-02-20 00:30:00,28.7,28.0,26.41,East,97,0.0,0.0,97,0.00,,,0.00,WeatherCatV1.02B3,2013-02-20 07:30:00,
2013-02-20 00:35:00,28.8,28.1,26.41,East,97,0.0,0.0,97,0.00,,,0.00,WeatherCatV1.02B3,2013-02-20 07:35:00,
2013-02-20 00:40:00,28.8,27.8,26.41,East,97,0.0,0.0,96,0.00,,,0.00,WeatherCatV1.02B3,2013-02-20 07:40:00,
2013-02-20 00:45:00,28.9,27.9,26.41,East,97,0.0,0.0,96,0.00,,,0.00,WeatherCatV1.02B3,2013-02-20 07:45:00,
2013-02-20 00:50:00,28.9,27.9,26.41,East,97,0.0,0.0,96,0.00,,,0.00,WeatherCatV1.02B3,2013-02-20 07:50:00,
2013-02-20 00:55:00,28.9,27.9,26.41,ESE,118,0.0,0.0,96,0.00,,,0.00,WeatherCatV1.02B3,2013-02-20 07:55:00,
2013-02-20 01:00:00,28.9,27.9,26.41,SSE,161,0.0,1.0,96,0.00,,,0.00,WeatherCatV1.02B3,2013-02-20 08:00:00,
2013-02-20 01:05:00,29.0,28.3,26.41,SSE,161,0.0,0.0,97,0.00,,,0.00,WeatherCatV1.02B3,2013-02-20 08:05:00,
2013-02-20 01:10:00,29.1,28.1,26.41,SSE,161,0.0,0.0,96,0.00,,,0.00,WeatherCatV1.02B3,2013-02-20 08:10:00,
2013-02-20 01:15:00,29.1,28.1,26.41,SSE,161,0.0,0.0,96,0.00,,,0.00,WeatherCatV1.02B3,2013-02-20 08:15:00,
2013-02-20 01:20:00,29.0,28.0,26.41,SSE,161,0.0,0.0,96,0.00,,,0.00,WeatherCatV1.02B3,2013-02-20 08:20:00,
2013-02-20 01:25:00,29.0,28.0,26.41,SSE,161,0.0,0.0,96,0.00,,,0.00,WeatherCatV1.02B3,2013-02-20 08:25:00,
2013-02-20 01:30:00,29.1,28.1,26.41,SSE,161,0.0,0.0,96,0.00,,,0.00,WeatherCatV1.02B3,2013-02-20 08:30:00,
2013-02-20 01:35:00,29.1,28.1,26.42,SSE,161,0.0,0.0,96,0.00,,,0.00,WeatherCatV1.02B3,2013-02-20 08:35:00,
2013-02-20 01:40:00,29.1,28.1,26.41,SSE,161,0.0,0.0,96,0.00,,,0.00,WeatherCatV1.02B3,2013-02-20 08:40:00,
2013-02-20 01:45:00,29.1,28.4,26.42,SSE,161,0.0,0.0,97,0.00,,,0.00,WeatherCatV1.02B3,2013-02-20 08:45:00,
2013-02-20 01:50:00,29.1,28.1,26.41,SSE,161,0.0,0.0,96,0.00,,,0.00,WeatherCatV1.02B3,2013-02-20 08:50:00,
2013-02-20 01:55:00,29.0,28.0,26.41,SSE,161,0.0,0.0,96,0.00,,,0.00,WeatherCatV1.02B3,2013-02-20 08:55:00,
2013-02-20 02:00:00,29.0,28.0,26.41,SSE,161,0.0,0.0,96,0.00,,,0.00,WeatherCatV1.02B3,2013-02-20 09:00:00,
2013-02-20 02:05:00,29.0,28.0,26.41,SSE,161,0.0,0.0,96,0.00,,,0.00,WeatherCatV1.02B3,2013-02-20 09:05:00,
2013-02-20 02:10:00,29.1,28.4,26.41,SSE,161,0.0,0.0,97,0.00,,,0.00,WeatherCatV1.02B3,2013-02-20 09:10:00,
2013-02-20 02:15:00,29.1,28.4,26.42,SSE,161,0.0,0.0,97,0.00,,,0.00,WeatherCatV1.02B3,2013-02-20 09:15:00,
2013-02-20 02:20:00,29.0,28.0,26.42,SSE,161,0.0,0.0,96,0.00,,,0.00,WeatherCatV1.02B3,2013-02-20 09:20:00,
2013-02-20 02:25:00,28.9,27.9,26.42,SSE,161,0.0,0.0,96,0.00,,,0.00,WeatherCatV1.02B3,2013-02-20 09:25:00,
2013-02-20 02:30:00,28.8,27.8,26.42,SSE,161,0.0,0.0,96,0.00,,,0.00,WeatherCatV1.02B3,2013-02-20 09:30:00,
2013-02-20 02:35:00,28.8,28.1,26.42,SSE,161,0.0,0.0,97,0.00,,,0.00,WeatherCatV1.02B3,2013-02-20 09:35:00,
2013-02-20 02:40:00,28.9,28.2,26.42,SSE,161,0.0,0.0,97,0.00,,,0.00,WeatherCatV1.02B3,2013-02-20 09:40:00,
2013-02-20 02:45:00,29.0,28.3,26.42,SSE,161,0.0,0.0,97,0.00,,,0.00,WeatherCatV1.02B3,2013-02-20 09:45:00,
2013-02-20 02:50:00,29.0,28.3,26.42,SSE,161,0.0,0.0,97,0.00,,,0.00,WeatherCatV1.02B3,2013-02-20 09:50:00,
2013-02-20 02:55:00,28.9,28.2,26.42,SSE,161,0.0,0.0,97,0.00,,,0.00,WeatherCatV1.02B3,2013-02-20 09:55:00,
2013-02-20 03:00:00,28.9,28.2,26.42,SSE,161,0.0,0.0,97,0.00,,,0.00,WeatherCatV1.02B3,2013-02-20 10:00:00,
2013-02-20 03:05:00,28.8,27.8,26.42,SSE,161,0.0,0.0,96,0.00,,,0.00,WeatherCatV1.02B3,2013-02-20 10:05:00,
2013-02-20 03:10:00,28.8,28.1,26.42,SSE,161,0.0,0.0,97,0.00,,,0.00,WeatherCatV1.02B3,2013-02-20 10:10:00,
2013-02-20 03:15:00,28.7,28.0,26.42,SSE,161,0.0,0.0,97,0.00,,,0.00,WeatherCatV1.02B3,2013-02-20 10:15:00,
2013-02-20 03:20:00,28.7,28.0,26.42,SSE,161,0.0,0.0,97,0.00,,,0.00,WeatherCatV1.02B3,2013-02-20 10:20:00,
2013-02-20 03:25:00,28.6,27.9,26.42,SSE,161,0.0,0.0,97,0.00,,,0.00,WeatherCatV1.02B3,2013-02-20 10:25:00,
2013-02-20 03:30:00,28.6,27.9,26.42,SSE,161,0.0,0.0,97,0.00,,,0.00,WeatherCatV1.02B3,2013-02-20 10:30:00,
2013-02-20 03:35:00,28.6,27.9,26.42,SSE,161,0.0,0.0,97,0.00,,,0.00,WeatherCatV1.02B3,2013-02-20 10:35:00,
2013-02-20 03:40:00,28.6,27.9,26.42,SSE,161,0.0,0.0,97,0.00,,,0.00,WeatherCatV1.02B3,2013-02-20 10:40:00,
2013-02-20 03:48:00,28.6,27.9,26.42,SSE,161,0.0,0.0,97,0.00,,,0.00,WeatherCatV1.02B3,2013-02-20 10:48:00,
2013-02-20 03:53:00,28.7,28.0,26.42,SSE,161,0.0,0.0,97,0.00,,,0.00,WeatherCatV1.02B3,2013-02-20 10:53:00,
2013-02-20 03:58:00,28.7,28.0,26.43,SSE,161,0.0,0.0,97,0.00,,,0.00,WeatherCatV1.02B3,2013-02-20 10:58:00,
2013-02-20 04:03:00,28.7,28.0,26.43,SSE,161,0.0,0.0,97,0.00,,,0.00,WeatherCatV1.02B3,2013-02-20 11:03:00,
2013-02-20 04:08:00,28.6,27.9,26.43,SSE,161,0.0,0.0,97,0.00,,,0.00,WeatherCatV1.02B3,2013-02-20 11:08:00,
2013-02-20 04:13:00,28.6,27.9,26.43,SSE,161,0.0,0.0,97,0.00,,,0.00,WeatherCatV1.02B3,2013-02-20 11:13:00,
2013-02-20 04:18:00,28.6,27.9,26.43,SSE,161,0.0,0.0,97,0.00,,,0.00,WeatherCatV1.02B3,2013-02-20 11:18:00,
2013-02-20 04:23:00,28.6,27.9,26.43,SSE,161,0.0,0.0,97,0.00,,,0.00,WeatherCatV1.02B3,2013-02-20 11:23:00,
2013-02-20 04:28:00,28.6,27.9,26.43,SSE,161,0.0,0.0,97,0.00,,,0.00,WeatherCatV1.02B3,2013-02-20 11:28:00,
2013-02-20 04:33:00,28.7,28.0,26.43,SSE,161,0.0,0.0,97,0.00,,,0.00,WeatherCatV1.02B3,2013-02-20 11:33:00,
2013-02-20 04:38:00,28.7,28.0,26.43,SSE,161,0.0,0.0,97,0.00,,,0.00,WeatherCatV1.02B3,2013-02-20 11:38:00,
2013-02-20 04:43:00,28.8,28.1,26.43,SSE,151,0.0,2.0,97,0.00,,,0.00,WeatherCatV1.02B3,2013-02-20 11:43:00,
2013-02-20 04:48:00,28.8,28.1,26.43,SSE,155,0.0,1.0,97,0.00,,,0.00,WeatherCatV1.02B3,2013-02-20 11:48:00,
2013-02-20 04:53:00,28.8,28.1,26.43,SSE,155,0.0,0.0,97,0.00,,,0.00,WeatherCatV1.02B3,2013-02-20 11:53:00,
2013-02-20 04:58:00,28.8,28.1,26.44,SSE,155,0.0,0.0,97,0.00,,,0.00,WeatherCatV1.02B3,2013-02-20 11:58:00,
2013-02-20 05:03:00,28.8,28.1,26.44,SSE,155,0.0,0.0,97,0.00,,,0.00,WeatherCatV1.02B3,2013-02-20 12:03:00,
2013-02-20 05:08:00,28.9,28.4,26.44,SSE,155,0.0,0.0,98,0.00,,,0.00,WeatherCatV1.02B3,2013-02-20 12:08:00,
2013-02-20 05:13:00,28.9,28.2,26.44,SSE,155,0.0,0.0,97,0.00,,,0.00,WeatherCatV1.02B3,2013-02-20 12:13:00,
2013-02-20 05:18:00,28.9,28.2,26.44,SSE,155,0.0,0.0,97,0.00,,,0.00,WeatherCatV1.02B3,2013-02-20 12:18:00,
2013-02-20 05:23:00,28.9,28.2,26.44,SSE,155,0.0,0.0,97,0.00,,,0.00,WeatherCatV1.02B3,2013-02-20 12:23:00,
2013-02-20 05:28:00,29.0,28.3,26.44,SSE,155,0.0,0.0,97,0.00,,,0.00,WeatherCatV1.02B3,2013-02-20 12:28:00,
2013-02-20 05:33:00,29.0,28.3,26.44,SSE,155,0.0,0.0,97,0.00,,,0.00,WeatherCatV1.02B3,2013-02-20 12:33:00,
2013-02-20 05:38:00,29.0,28.3,26.44,SSE,155,0.0,0.0,97,0.00,,,0.00,WeatherCatV1.02B3,2013-02-20 12:38:00,
2013-02-20 05:43:00,29.0,28.3,26.44,SSE,155,0.0,0.0,97,0.00,,,0.00,WeatherCatV1.02B3,2013-02-20 12:43:00,
2013-02-20 05:48:00,29.0,28.3,26.44,SSE,155,0.0,0.0,97,0.00,,,0.00,WeatherCatV1.02B3,2013-02-20 12:48:00,
2013-02-20 05:53:00,29.1,28.4,26.44,SSE,155,0.0,0.0,97,0.00,,,0.00,WeatherCatV1.02B3,2013-02-20 12:53:00,
2013-02-20 05:58:00,29.0,28.3,26.44,SSE,155,0.0,0.0,97,0.00,,,0.00,WeatherCatV1.02B3,2013-02-20 12:58:00,
2013-02-20 06:03:00,29.0,28.3,26.44,SSE,155,0.0,0.0,97,0.00,,,0.00,WeatherCatV1.02B3,2013-02-20 13:03:00,
2013-02-20 06:08:00,29.0,28.3,26.44,SSE,155,0.0,0.0,97,0.00,,,0.00,WeatherCatV1.02B3,2013-02-20 13:08:00,
2013-02-20 06:13:00,29.1,28.4,26.44,SSE,155,0.0,0.0,97,0.00,,,0.00,WeatherCatV1.02B3,2013-02-20 13:13:00,
2013-02-20 06:18:00,29.1,28.4,26.44,SSE,155,0.0,0.0,97,0.00,,,0.00,WeatherCatV1.02B3,2013-02-20 13:18:00,
2013-02-20 06:23:00,29.2,28.5,26.44,SSE,155,0.0,0.0,97,0.00,,,0.00,WeatherCatV1.02B3,2013-02-20 13:23:00,
2013-02-20 06:28:00,29.3,28.8,26.45,SSE,155,0.0,0.0,98,0.00,,,0.00,WeatherCatV1.02B3,2013-02-20 13:28:00,
2013-02-20 06:33:00,29.3,28.6,26.45,SSE,155,0.0,0.0,97,0.00,,,0.00,WeatherCatV1.02B3,2013-02-20 13:33:00,
2013-02-20 06:38:00,29.2,28.5,26.45,SSE,155,0.0,0.0,97,0.00,,,0.00,WeatherCatV1.02B3,2013-02-20 13:38:00,
2013-02-20 06:43:00,29.2,28.7,26.45,SSE,155,0.0,0.0,98,0.00,,,0.00,WeatherCatV1.02B3,2013-02-20 13:43:00,
2013-02-20 06:48:00,29.3,28.8,26.45,SSE,155,0.0,0.0,98,0.00,,,0.00,WeatherCatV1.02B3,2013-02-20 13:48:00,
2013-02-20 06:53:00,29.4,28.9,26.45,SSE,155,0.0,0.0,98,0.00,,,0.00,WeatherCatV1.02B3,2013-02-20 13:53:00,
2013-02-20 06:58:00,29.5,29.0,26.45,SSE,155,0.0,0.0,98,0.00,,,0.00,WeatherCatV1.02B3,2013-02-20 13:58:00,
2013-02-20 07:03:00,29.5,29.0,26.45,SSE,154,0.0,0.0,98,0.00,,,0.00,WeatherCatV1.02B3,2013-02-20 14:03:00,
2013-02-20 07:08:00,29.6,29.1,26.45,SSE,155,0.0,0.0,98,0.00,,,0.00,WeatherCatV1.02B3,2013-02-20 14:08:00,
2013-02-20 07:13:00,29.6,29.1,26.45,SSE,155,0.0,0.0,98,0.00,,,0.00,WeatherCatV1.02B3,2013-02-20 14:13:00,
2013-02-20 07:18:00,29.6,29.1,26.46,SSE,155,0.0,0.0,98,0.00,,,0.00,WeatherCatV1.02B3,2013-02-20 14:18:00,
2013-02-20 07:23:00,29.6,29.1,26.45,SSE,155,0.0,0.0,98,0.00,,,0.00,WeatherCatV1.02B3,2013-02-20 14:23:00,
2013-02-20 07:28:00,29.6,29.1,26.45,SSE,155,0.0,0.0,98,0.00,,,0.00,WeatherCatV1.02B3,2013-02-20 14:28:00,
2013-02-20 07:33:00,29.7,29.2,26.46,SSE,155,0.0,0.0,98,0.00,,,0.00,WeatherCatV1.02B3,2013-02-20 14:33:00,
2013-02-20 07:38:00,29.7,29.2,26.46,SSE,155,0.0,0.0,98,0.00,,,0.00,WeatherCatV1.02B3,2013-02-20 14:38:00,
2013-02-20 07:43:00,29.8,29.3,26.46,SSE,155,0.0,0.0,98,0.00,,,0.00,WeatherCatV1.02B3,2013-02-20 14:43:00,
2013-02-20 07:48:00,29.8,29.3,26.46,SSE,155,0.0,0.0,98,0.00,,,0.00,WeatherCatV1.02B3,2013-02-20 14:48:00,
2013-02-20 07:53:00,29.9,29.4,26.46,SSE,155,0.0,0.0,98,0.00,,,0.00,WeatherCatV1.02B3,2013-02-20 14:53:00,
2013-02-20 07:58:00,29.9,29.4,26.46,SSE,155,0.0,0.0,98,0.00,,,0.00,WeatherCatV1.02B3,2013-02-20 14:58:00,
2013-02-20 08:03:00,29.9,29.4,26.46,SSE,155,0.0,0.0,98,0.00,,,0.00,WeatherCatV1.02B3,2013-02-20 15:03:00,
2013-02-20 08:08:00,30.0,29.5,26.47,SSE,155,0.0,0.0,98,0.00,,,0.00,WeatherCatV1.02B3,2013-02-20 15:08:00,
2013-02-20 08:13:00,30.2,29.7,26.47,SSE,155,0.0,0.0,98,0.00,,,0.00,WeatherCatV1.02B3,2013-02-20 15:13:00,
2013-02-20 08:18:00,30.3,29.8,26.47,SSE,155,0.0,0.0,98,0.00,,,0.00,WeatherCatV1.02B3,2013-02-20 15:18:00,
2013-02-20 08:23:00,30.3,29.8,26.47,SSE,155,0.0,0.0,98,0.00,,,0.00,WeatherCatV1.02B3,2013-02-20 15:23:00,
2013-02-20 08:28:00,30.4,29.9,26.47,SSE,155,0.0,0.0,98,0.00,,,0.00,WeatherCatV1.02B3,2013-02-20 15:28:00,
2013-02-20 08:33:00,30.5,30.0,26.47,SSE,155,0.0,0.0,98,0.00,,,0.00,WeatherCatV1.02B3,2013-02-20 15:33:00,
2013-02-20 08:38:00,30.7,30.2,26.47,SSE,155,0.0,0.0,98,0.00,,,0.00,WeatherCatV1.02B3,2013-02-20 15:38:00,
2013-02-20 08:43:00,31.0,30.5,26.47,SSE,155,0.0,0.0,98,0.00,,,0.00,WeatherCatV1.02B3,2013-02-20 15:43:00,
2013-02-20 08:48:00,31.2,30.5,26.47,SSE,155,0.0,0.0,97,0.00,,,0.00,WeatherCatV1.02B3,2013-02-20 15:48:00,
2013-02-20 08:53:00,31.3,30.5,26.47,SSE,155,0.0,0.0,97,0.00,,,0.00,WeatherCatV1.02B3,2013-02-20 15:53:00,
2013-02-20 08:58:00,31.4,30.4,26.47,SSE,155,0.0,0.0,96,0.00,,,0.00,WeatherCatV1.02B3,2013-02-20 15:58:00,
2013-02-20 09:03:00,31.5,30.5,26.47,SSE,155,0.0,0.0,96,0.00,,,0.00,WeatherCatV1.02B3,2013-02-20 16:03:00,
2013-02-20 09:08:00,31.7,30.7,26.47,SSE,155,0.0,0.0,96,0.00,,,0.00,WeatherCatV1.02B3,2013-02-20 16:08:00,
2013-02-20 09:13:00,31.9,30.9,26.47,SSE,155,0.0,0.0,96,0.00,,,0.00,WeatherCatV1.02B3,2013-02-20 16:13:00,
2013-02-20 09:18:00,32.1,30.8,26.47,SSE,155,0.0,0.0,95,0.00,,,0.00,WeatherCatV1.02B3,2013-02-20 16:18:00,
2013-02-20 09:23:00,32.2,30.7,26.47,SSE,155,0.0,0.0,94,0.00,,,0.00,WeatherCatV1.02B3,2013-02-20 16:23:00,
2013-02-20 09:28:00,32.3,30.8,26.48,SSE,166,0.0,1.0,94,0.00,,,0.00,WeatherCatV1.02B3,2013-02-20 16:28:00,
2013-02-20 09:33:00,32.2,30.7,26.48,SE,130,0.0,1.0,94,0.00,,,0.00,WeatherCatV1.02B3,2013-02-20 16:33:00,
2013-02-20 09:38:00,32.1,30.6,26.48,SE,130,0.0,0.0,94,0.00,,,0.00,WeatherCatV1.02B3,2013-02-20 16:38:00,
2013-02-20 09:43:00,32.1,30.8,26.48,SSE,168,0.0,1.0,95,0.00,,,0.00,WeatherCatV1.02B3,2013-02-20 16:43:00,
2013-02-20 09:48:00,32.1,30.8,26.48,South,177,1.0,1.0,95,0.00,,,0.00,WeatherCatV1.02B3,2013-02-20 16:48:00,
2013-02-20 09:53:00,32.1,30.6,26.48,South,188,0.0,1.0,94,0.00,,,0.00,WeatherCatV1.02B3,2013-02-20 16:53:00,
2013-02-20 09:58:00,32.2,30.7,26.48,SSW,211,3.0,3.0,94,0.00,,,0.00,WeatherCatV1.02B3,2013-02-20 16:58:00,
2013-02-20 10:03:00,32.3,30.8,26.48,SSE,148,2.0,2.0,94,0.00,,,0.00,WeatherCatV1.02B3,2013-02-20 17:03:00,
2013-02-20 10:08:00,32.3,30.8,26.48,SSE,156,0.0,1.0,94,0.00,,,0.00,WeatherCatV1.02B3,2013-02-20 17:08:00,
2013-02-20 10:13:00,32.3,30.8,26.48,SSE,154,0.0,0.0,94,0.00,,,0.01,WeatherCatV1.02B3,2013-02-20 17:13:00,
2013-02-20 10:18:00,32.3,30.8,26.48,SSE,154,0.0,0.0,94,0.00,,,0.01,WeatherCatV1.02B3,2013-02-20 17:18:00,
2013-02-20 10:23:00,32.4,30.9,26.48,SSE,154,0.0,0.0,94,0.00,,,0.01,WeatherCatV1.02B3,2013-02-20 17:23:00,
2013-02-20 10:28:00,32.5,31.0,26.48,SSE,154,0.0,0.0,94,0.00,,,0.01,WeatherCatV1.02B3,2013-02-20 17:28:00,
2013-02-20 10:33:00,32.4,30.6,26.48,East,101,0.0,2.0,93,0.00,,,0.01,WeatherCatV1.02B3,2013-02-20 17:33:00,
2013-02-20 10:38:00,32.2,30.7,26.48,SSE,150,1.0,1.0,94,0.00,,,0.01,WeatherCatV1.02B3,2013-02-20 17:38:00,
2013-02-20 10:43:00,32.3,30.8,26.48,South,180,1.0,1.0,94,0.00,,,0.01,WeatherCatV1.02B3,2013-02-20 17:43:00,
2013-02-20 10:48:00,32.4,30.6,26.48,South,175,0.0,2.0,93,0.00,,,0.01,WeatherCatV1.02B3,2013-02-20 17:48:00,
2013-02-20 10:53:00,32.5,30.7,26.48,South,175,0.0,1.0,93,0.00,,,0.02,WeatherCatV1.02B3,2013-02-20 17:53:00,
2013-02-20 10:58:00,32.8,31.3,26.48,SE,140,3.0,3.0,94,0.00,,,0.02,WeatherCatV1.02B3,2013-02-20 17:58:00,
2013-02-20 11:03:00,33.0,30.9,26.48,SSW,211,0.0,2.0,92,0.00,,,0.02,WeatherCatV1.02B3,2013-02-20 18:03:00,
2013-02-20 11:08:00,33.1,31.0,26.48,SW,223,1.0,2.0,92,0.00,,,0.02,WeatherCatV1.02B3,2013-02-20 18:08:00,
2013-02-20 11:13:00,33.2,30.9,26.48,WNW,294,0.0,2.0,91,0.00,,,0.02,WeatherCatV1.02B3,2013-02-20 18:13:00,
2013-02-20 11:18:00,33.4,30.8,26.48,South,179,1.0,2.0,90,0.00,,,0.02,WeatherCatV1.02B3,2013-02-20 18:18:00,
2013-02-20 11:23:00,33.6,30.7,26.48,South,176,1.0,3.0,89,0.00,,,0.03,WeatherCatV1.02B3,2013-02-20 18:23:00,
2013-02-20 11:28:00,33.6,30.4,26.48,SW,236,3.0,4.0,88,0.00,,,0.03,WeatherCatV1.02B3,2013-02-20 18:28:00,
2013-02-20 11:33:00,33.6,30.4,26.48,SE,129,2.0,3.0,88,0.00,,,0.03,WeatherCatV1.02B3,2013-02-20 18:33:00,
2013-02-20 11:38:00,33.5,30.6,26.48,SSE,155,1.0,3.0,89,0.00,,,0.03,WeatherCatV1.02B3,2013-02-20 18:38:00,
2013-02-20 11:43:00,33.5,30.6,26.48,SSE,156,0.0,2.0,89,0.00,,,0.03,WeatherCatV1.02B3,2013-02-20 18:43:00,
2013-02-20 11:48:00,33.6,30.7,26.48,ESE,105,1.0,2.0,89,0.00,,,0.03,WeatherCatV1.02B3,2013-02-20 18:48:00,
2013-02-20 11:53:00,33.5,30.6,26.48,SE,136,2.0,4.0,89,0.00,,,0.04,WeatherCatV1.02B3,2013-02-20 18:53:00,
2013-02-20 11:58:00,33.4,30.5,26.48,SE,139,3.0,3.0,89,0.00,,,0.04,WeatherCatV1.02B3,2013-02-20 18:58:00,
2013-02-20 12:03:00,33.3,30.4,26.48,ESE,121,0.0,1.0,89,0.00,,,0.04,WeatherCatV1.02B3,2013-02-20 19:03:00,
2013-02-20 12:08:00,33.1,30.2,26.48,ESE,112,0.0,3.0,89,0.00,,,0.04,WeatherCatV1.02B3,2013-02-20 19:08:00,
2013-02-20 12:13:00,33.0,30.1,26.48,SE,132,0.0,3.0,89,0.00,,,0.04,WeatherCatV1.02B3,2013-02-20 19:13:00,
2013-02-20 12:18:00,33.2,30.3,26.48,SE,136,0.0,0.0,89,0.00,,,0.04,WeatherCatV1.02B3,2013-02-20 19:18:00,
2013-02-20 12:23:00,33.4,30.5,26.48,ESE,123,0.0,0.0,89,0.00,,,0.04,WeatherCatV1.02B3,2013-02-20 19:23:00,
2013-02-20 12:28:00,33.4,29.4,26.47,East,83,3.0,4.0,85,0.00,,,0.04,WeatherCatV1.02B3,2013-02-20 19:28:00,
2013-02-20 12:33:00,33.4,30.0,26.47,ESE,111,2.0,3.0,87,0.00,,,0.04,WeatherCatV1.02B3,2013-02-20 19:33:00,
2013-02-20 12:38:00,33.3,29.6,26.47,East,101,3.0,4.0,86,0.00,,,0.04,WeatherCatV1.02B3,2013-02-20 19:38:00,
2013-02-20 12:43:00,33.2,28.9,26.47,ESE,123,2.0,3.0,84,0.00,,,0.04,WeatherCatV1.02B3,2013-02-20 19:43:00,
2013-02-20 12:48:00,33.2,28.9,26.47,SSE,160,1.0,2.0,84,0.00,,,0.04,WeatherCatV1.02B3,2013-02-20 19:48:00,
2013-02-20 12:53:00,33.3,29.3,26.47,SE,130,2.0,4.0,85,0.00,,,0.04,WeatherCatV1.02B3,2013-02-20 19:53:00,
2013-02-20 12:58:00,33.2,29.5,26.47,ESE,111,0.0,1.0,86,0.00,,,0.04,WeatherCatV1.02B3,2013-02-20 19:58:00,
2013-02-20 13:03:00,33.2,29.2,26.47,ESE,113,0.0,0.0,85,0.00,,,0.04,WeatherCatV1.02B3,2013-02-20 20:03:00,
2013-02-20 13:08:00,33.2,29.5,26.47,ESE,111,0.0,0.0,86,0.00,,,0.04,WeatherCatV1.02B3,2013-02-20 20:08:00,
2013-02-20 13:13:00,33.2,28.6,26.47,South,169,2.0,3.0,83,0.00,,,0.04,WeatherCatV1.02B3,2013-02-20 20:13:00,
2013-02-20 13:18:00,33.3,28.4,26.47,SSE,153,0.0,0.0,82,0.00,,,0.04,WeatherCatV1.02B3,2013-02-20 20:18:00,
2013-02-20 13:23:00,33.5,28.0,26.47,ESE,105,1.0,2.0,80,0.00,,,0.04,WeatherCatV1.02B3,2013-02-20 20:23:00,
2013-02-20 13:28:00,33.4,27.9,26.47,SSW,200,2.0,3.0,80,0.00,,,0.04,WeatherCatV1.02B3,2013-02-20 20:28:00,
2013-02-20 13:33:00,33.0,28.7,26.47,West,270,1.0,3.0,84,0.00,,,0.04,WeatherCatV1.02B3,2013-02-20 20:33:00,
2013-02-20 13:38:00,32.4,29.0,26.47,SE,143,1.0,6.0,87,0.00,,,0.04,WeatherCatV1.02B3,2013-02-20 20:38:00,
2013-02-20 13:43:00,31.9,29.0,26.47,SE,136,2.0,3.0,89,0.00,,,0.04,WeatherCatV1.02B3,2013-02-20 20:43:00,
2013-02-20 13:48:00,31.5,28.9,26.47,ESE,114,3.0,4.0,90,0.00,,,0.04,WeatherCatV1.02B3,2013-02-20 20:48:00,
2013-02-20 13:53:00,31.4,28.8,26.47,ESE,118,0.0,3.0,90,0.00,,,0.04,WeatherCatV1.02B3,2013-02-20 20:53:00,
2013-02-20 13:58:00,31.6,29.3,26.47,ESE,121,2.0,3.0,91,0.00,,,0.04,WeatherCatV1.02B3,2013-02-20 20:58:00,
2013-02-20 14:03:00,31.9,29.3,26.47,SE,124,3.0,4.0,90,0.00,,,0.04,WeatherCatV1.02B3,2013-02-20 21:03:00,
2013-02-20 14:08:00,32.2,29.3,26.47,SSW,205,2.0,2.0,89,0.00,,,0.04,WeatherCatV1.02B3,2013-02-20 21:08:00,
2013-02-20 14:13:00,32.3,28.9,26.47,SE,144,3.0,3.0,87,0.00,,,0.05,WeatherCatV1.02B3,2013-02-20 21:13:00,
2013-02-20 14:18:00,32.2,29.1,26.47,South,171,1.0,4.0,88,0.00,,,0.05,WeatherCatV1.02B3,2013-02-20 21:18:00,
2013-02-20 14:23:00,31.9,29.0,26.47,East,92,3.0,4.0,89,0.00,,,0.05,WeatherCatV1.02B3,2013-02-20 21:23:00,
2013-02-20 14:28:00,31.5,28.9,26.47,East,94,1.0,2.0,90,0.00,,,0.05,WeatherCatV1.02B3,2013-02-20 21:28:00,
2013-02-20 14:33:00,31.5,29.2,26.46,ESE,109,3.0,3.0,91,0.00,,,0.05,WeatherCatV1.02B3,2013-02-20 21:33:00,
2013-02-20 14:38:00,31.5,29.2,26.46,SE,143,4.0,7.0,91,0.00,,,0.05,WeatherCatV1.02B3,2013-02-20 21:38:00,
2013-02-20 14:43:00,31.3,29.3,26.46,SE,131,0.0,3.0,92,0.00,,,0.05,WeatherCatV1.02B3,2013-02-20 21:43:00,
2013-02-20 14:48:00,31.5,29.2,26.46,ENE,67,3.0,3.0,91,0.00,,,0.05,WeatherCatV1.02B3,2013-02-20 21:48:00,
2013-02-20 14:53:00,31.8,29.5,26.46,SE,126,2.0,2.0,91,0.00,,,0.05,WeatherCatV1.02B3,2013-02-20 21:53:00,
2013-02-20 14:58:00,32.0,29.4,26.46,SE,143,3.0,5.0,90,0.00,,,0.05,WeatherCatV1.02B3,2013-02-20 21:58:00,
2013-02-20 15:03:00,32.3,29.7,26.46,SE,130,3.0,3.0,90,0.00,,,0.05,WeatherCatV1.02B3,2013-02-20 22:03:00,
2013-02-20 15:08:00,32.4,29.2,26.46,ESE,103,3.0,3.0,88,0.00,,,0.05,WeatherCatV1.02B3,2013-02-20 22:08:00,
2013-02-20 15:13:00,32.3,28.9,26.46,East,88,3.0,4.0,87,0.00,,,0.05,WeatherCatV1.02B3,2013-02-20 22:13:00,
2013-02-20 15:18:00,32.3,28.9,26.46,SE,131,2.0,4.0,87,0.00,,,0.05,WeatherCatV1.02B3,2013-02-20 22:18:00,
2013-02-20 15:23:00,32.2,28.8,26.46,ESE,119,3.0,4.0,87,0.00,,,0.05,WeatherCatV1.02B3,2013-02-20 22:23:00,
2013-02-20 15:28:00,32.2,28.8,26.46,ESE,118,3.0,5.0,87,0.00,,,0.05,WeatherCatV1.02B3,2013-02-20 22:28:00,
2013-02-20 15:33:00,32.3,28.9,26.46,SE,132,2.0,4.0,87,0.00,,,0.05,WeatherCatV1.02B3,2013-02-20 22:33:00,
2013-02-20 15:38:00,32.5,28.8,26.46,SE,128,2.0,3.0,86,0.00,,,0.05,WeatherCatV1.02B3,2013-02-20 22:38:00,
2013-02-20 15:43:00,32.6,28.6,26.46,ESE,123,0.0,3.0,85,0.00,,,0.05,WeatherCatV1.02B3,2013-02-20 22:43:00,
2013-02-20 15:48:00,32.8,29.1,26.46,ESE,107,1.0,2.0,86,0.00,,,0.05,WeatherCatV1.02B3,2013-02-20 22:48:00,
2013-02-20 15:53:00,32.9,28.6,26.46,SE,144,2.0,3.0,84,0.00,,,0.05,WeatherCatV1.02B3,2013-02-20 22:53:00,
2013-02-20 15:58:00,33.1,28.8,26.45,SE,146,1.0,5.0,84,0.00,,,0.05,WeatherCatV1.02B3,2013-02-20 22:58:00,
2013-02-20 16:03:00,33.1,28.2,26.46,ESE,120,2.0,7.0,82,0.00,,,0.05,WeatherCatV1.02B3,2013-02-20 23:03:00,
2013-02-20 16:08:00,33.0,28.1,26.45,ESE,115,1.0,4.0,82,0.00,,,0.05,WeatherCatV1.02B3,2013-02-20 23:08:00,
2013-02-20 16:13:00,33.1,28.5,26.45,ESE,103,0.0,3.0,83,0.00,,,0.05,WeatherCatV1.02B3,2013-02-20 23:13:00,
2013-02-20 16:18:00,33.2,28.6,26.45,ESE,102,0.0,2.0,83,0.00,,,0.05,WeatherCatV1.02B3,2013-02-20 23:18:00,
2013-02-20 16:23:00,33.7,28.8,26.45,ESE,108,0.0,2.0,82,0.00,,,0.05,WeatherCatV1.02B3,2013-02-20 23:23:00,
2013-02-20 16:28:00,33.8,28.6,26.45,SE,134,2.0,7.0,81,0.00,,,0.05,WeatherCatV1.02B3,2013-02-20 23:28:00,
2013-02-20 16:33:00,33.8,28.3,26.45,SE,124,5.0,6.0,80,0.00,,,0.05,WeatherCatV1.02B3,2013-02-20 23:33:00,
2013-02-20 16:38:00,33.8,28.6,26.45,ESE,115,2.0,2.0,81,0.00,,,0.05,WeatherCatV1.02B3,2013-02-20 23:38:00,
2013-02-20 16:43:00,33.8,28.3,26.45,ENE,68,3.0,3.0,80,0.00,,,0.05,WeatherCatV1.02B3,2013-02-20 23:43:00,
2013-02-20 16:48:00,33.7,27.6,26.45,SSE,153,1.0,2.0,78,0.00,,,0.05,WeatherCatV1.02B3,2013-02-20 23:48:00,
2013-02-20 16:53:00,33.8,27.7,26.45,SSE,167,1.0,2.0,78,0.00,,,0.05,WeatherCatV1.02B3,2013-02-20 23:53:00,
2013-02-20 16:58:00,33.7,27.6,26.45,ENE,72,1.0,3.0,78,0.00,,,0.05,WeatherCatV1.02B3,2013-02-20 23:58:00,
2013-02-20 17:03:00,33.5,28.3,26.45,East,95,0.0,2.0,81,0.00,,,0.05,WeatherCatV1.02B3,2013-02-21 00:03:00,
2013-02-20 17:08:00,33.1,29.1,26.45,East,85,0.0,1.0,85,0.00,,,0.05,WeatherCatV1.02B3,2013-02-21 00:08:00,
2013-02-20 17:13:00,32.9,28.9,26.45,East,83,0.0,1.0,85,0.00,,,0.05,WeatherCatV1.02B3,2013-02-21 00:13:00,
2013-02-20 17:18:00,32.6,29.4,26.45,East,83,0.0,1.0,88,0.00,,,0.05,WeatherCatV1.02B3,2013-02-21 00:18:00,
2013-02-20 17:23:00,32.4,29.0,26.46,East,82,0.0,0.0,87,0.00,,,0.05,WeatherCatV1.02B3,2013-02-21 00:23:00,
2013-02-20 17:28:00,32.4,28.7,26.46,ESE,107,0.0,2.0,86,0.00,,,0.05,WeatherCatV1.02B3,2013-02-21 00:28:00,
2013-02-20 17:33:00,32.3,29.7,26.46,ESE,107,0.0,0.0,90,0.00,,,0.05,WeatherCatV1.02B3,2013-02-21 00:33:00,
2013-02-20 17:38:00,32.1,29.8,26.46,ESE,107,0.0,0.0,91,0.00,,,0.05,WeatherCatV1.02B3,2013-02-21 00:38:00,
2013-02-20 17:43:00,31.9,29.0,26.46,SE,140,0.0,2.0,89,0.00,,,0.05,WeatherCatV1.02B3,2013-02-21 00:43:00,
2013-02-20 17:48:00,31.9,29.0,26.46,East,96,0.0,1.0,89,0.00,,,0.05,WeatherCatV1.02B3,2013-02-21 00:48:00,
2013-02-20 17:53:00,31.7,29.4,26.46,NE,42,0.0,1.0,91,0.00,,,0.05,WeatherCatV1.02B3,2013-02-21 00:53:00,
2013-02-20 17:58:00,31.5,29.2,26.46,NNW,346,0.0,0.0,91,0.00,,,0.05,WeatherCatV1.02B3,2013-02-21 00:58:00,
2013-02-20 18:03:00,31.4,29.4,26.46,SE,142,2.0,3.0,92,0.00,,,0.05,WeatherCatV1.02B3,2013-02-21 01:03:00,
2013-02-20 18:08:00,31.1,29.1,26.46,East,93,0.0,1.0,92,0.00,,,0.05,WeatherCatV1.02B3,2013-02-21 01:08:00,
2013-02-20 18:13:00,31.0,29.0,26.46,East,93,0.0,0.0,92,0.00,,,0.05,WeatherCatV1.02B3,2013-02-21 01:13:00,
2013-02-20 18:18:00,30.9,28.9,26.46,East,92,0.0,1.0,92,0.00,,,0.05,WeatherCatV1.02B3,2013-02-21 01:18:00,
2013-02-20 18:23:00,30.9,28.9,26.46,ESE,115,0.0,0.0,92,0.00,,,0.05,WeatherCatV1.02B3,2013-02-21 01:23:00,
2013-02-20 18:28:00,30.8,29.3,26.47,ESE,115,0.0,0.0,94,0.00,,,0.05,WeatherCatV1.02B3,2013-02-21 01:28:00,
2013-02-20 18:33:00,30.6,29.1,26.47,ESE,115,0.0,0.0,94,0.00,,,0.05,WeatherCatV1.02B3,2013-02-21 01:33:00,
2013-02-20 18:38:00,30.5,29.0,26.47,ESE,115,0.0,0.0,94,0.00,,,0.05,WeatherCatV1.02B3,2013-02-21 01:38:00,
2013-02-20 18:43:00,30.3,28.8,26.47,ESE,115,0.0,0.0,94,0.00,,,0.05,WeatherCatV1.02B3,2013-02-21 01:43:00,
2013-02-20 18:48:00,30.3,28.8,26.47,ESE,115,0.0,0.0,94,0.00,,,0.05,WeatherCatV1.02B3,2013-02-21 01:48:00,
2013-02-20 18:53:00,30.2,28.7,26.47,East,92,1.0,1.0,94,0.00,,,0.05,WeatherCatV1.02B3,2013-02-21 01:53:00,
2013-02-20 18:58:00,30.2,28.4,26.48,NW,315,0.0,0.0,93,0.00,,,0.05,WeatherCatV1.02B3,2013-02-21 01:58:00,
2013-02-20 19:03:00,30.2,28.4,26.48,NW,315,0.0,0.0,93,0.00,,,0.05,WeatherCatV1.02B3,2013-02-21 02:03:00,
2013-02-20 19:08:00,30.1,28.3,26.48,NW,315,0.0,0.0,93,0.00,,,0.05,WeatherCatV1.02B3,2013-02-21 02:08:00,
2013-02-20 19:13:00,29.9,28.4,26.48,NNW,334,0.0,0.0,94,0.00,,,0.05,WeatherCatV1.02B3,2013-02-21 02:13:00,
2013-02-20 19:18:00,29.9,28.4,26.48,ENE,73,0.0,0.0,94,0.00,,,0.05,WeatherCatV1.02B3,2013-02-21 02:18:00,
2013-02-20 19:23:00,29.9,28.4,26.48,ENE,73,0.0,0.0,94,0.00,,,0.05,WeatherCatV1.02B3,2013-02-21 02:23:00,
2013-02-20 19:28:00,29.9,28.4,26.48,ENE,73,0.0,0.0,94,0.00,,,0.05,WeatherCatV1.02B3,2013-02-21 02:28:00,
2013-02-20 19:33:00,29.9,28.6,26.49,SE,128,0.0,1.0,95,0.00,,,0.05,WeatherCatV1.02B3,2013-02-21 02:33:00,
2013-02-20 19:38:00,29.8,28.0,26.49,South,186,0.0,0.0,93,0.00,,,0.05,WeatherCatV1.02B3,2013-02-21 02:38:00,
2013-02-20 19:43:00,29.8,28.0,26.49,ESE,123,0.0,0.0,93,0.00,,,0.05,WeatherCatV1.02B3,2013-02-21 02:43:00,
2013-02-20 19:48:00,29.8,28.3,26.49,ESE,107,0.0,0.0,94,0.00,,,0.05,WeatherCatV1.02B3,2013-02-21 02:48:00,
2013-02-20 19:53:00,29.7,28.2,26.49,ESE,107,0.0,0.0,94,0.00,,,0.05,WeatherCatV1.02B3,2013-02-21 02:53:00,
2013-02-20 19:58:00,29.7,27.9,26.49,ESE,107,0.0,0.0,93,0.00,,,0.05,WeatherCatV1.02B3,2013-02-21 02:58:00,
2013-02-20 20:03:00,29.6,27.8,26.49,ESE,107,0.0,2.0,93,0.00,,,0.05,WeatherCatV1.02B3,2013-02-21 03:03:00,
2013-02-20 20:08:00,29.5,28.0,26.49,ESE,107,0.0,0.0,94,0.00,,,0.05,WeatherCatV1.02B3,2013-02-21 03:08:00,
2013-02-20 20:13:00,29.4,27.9,26.49,ESE,107,0.0,0.0,94,0.00,,,0.05,WeatherCatV1.02B3,2013-02-21 03:13:00,
2013-02-20 20:18:00,29.3,27.8,26.49,ESE,107,0.0,0.0,94,0.00,,,0.05,WeatherCatV1.02B3,2013-02-21 03:18:00,
2013-02-20 20:23:00,29.3,27.8,26.49,ESE,107,0.0,0.0,94,0.00,,,0.05,WeatherCatV1.02B3,2013-02-21 03:23:00,
2013-02-20 20:28:00,29.1,27.3,26.49,ESE,107,0.0,0.0,93,0.00,,,0.05,WeatherCatV1.02B3,2013-02-21 03:28:00,
2013-02-20 20:33:00,28.9,27.4,26.49,ESE,107,0.0,0.0,94,0.00,,,0.05,WeatherCatV1.02B3,2013-02-21 03:33:00,
2013-02-20 20:38:00,28.7,27.2,26.49,ESE,107,0.0,0.0,94,0.00,,,0.05,WeatherCatV1.02B3,2013-02-21 03:38:00,
2013-02-20 20:43:00,28.5,26.7,26.49,SE,143,0.0,2.0,93,0.00,,,0.05,WeatherCatV1.02B3,2013-02-21 03:43:00,
2013-02-20 20:48:00,28.3,26.8,26.50,ESE,121,0.0,1.0,94,0.00,,,0.05,WeatherCatV1.02B3,2013-02-21 03:48:00,
2013-02-20 20:53:00,28.0,26.5,26.50,ESE,121,0.0,0.0,94,0.00,,,0.05,WeatherCatV1.02B3,2013-02-21 03:53:00,
2013-02-20 20:57:00,27.8,26.3,26.50,ESE,121,0.0,0.0,94,0.00,,,0.05,WeatherCatV1.02B3,2013-02-21 03:57:00,
2013-02-20 21:02:00,27.6,26.1,26.50,ESE,121,0.0,0.0,94,0.00,,,0.05,WeatherCatV1.02B3,2013-02-21 04:02:00,
2013-02-20 21:07:00,27.4,25.9,26.50,ESE,121,0.0,0.0,94,0.00,,,0.05,WeatherCatV1.02B3,2013-02-21 04:07:00,
2013-02-20 21:12:00,27.2,26.0,26.50,ESE,121,0.0,0.0,95,0.00,,,0.05,WeatherCatV1.02B3,2013-02-21 04:12:00,
2013-02-20 21:17:00,27.0,25.8,26.50,ESE,121,0.0,0.0,95,0.00,,,0.05,WeatherCatV1.02B3,2013-02-21 04:17:00,
2013-02-20 21:22:00,26.9,25.9,26.50,ESE,121,0.0,0.0,96,0.00,,,0.05,WeatherCatV1.02B3,2013-02-21 04:22:00,
2013-02-20 21:27:00,26.9,25.9,26.50,ESE,121,0.0,0.0,96,0.00,,,0.05,WeatherCatV1.02B3,2013-02-21 04:27:00,
2013-02-20 21:32:00,26.9,25.9,26.51,ESE,119,0.0,0.0,96,0.00,,,0.05,WeatherCatV1.02B3,2013-02-21 04:32:00,
2013-02-20 21:37:00,26.9,25.7,26.51,ESE,119,0.0,0.0,95,0.00,,,0.05,WeatherCatV1.02B3,2013-02-21 04:37:00,
2013-02-20 21:42:00,26.8,25.6,26.51,ESE,119,0.0,0.0,95,0.00,,,0.05,WeatherCatV1.02B3,2013-02-21 04:42:00,
2013-02-20 21:47:00,26.7,25.5,26.51,ESE,119,0.0,0.0,95,0.00,,,0.05,WeatherCatV1.02B3,2013-02-21 04:47:00,
2013-02-20 21:52:00,26.7,25.5,26.51,ESE,116,0.0,0.0,95,0.00,,,0.05,WeatherCatV1.02B3,2013-02-21 04:52:00,
2013-02-20 21:57:00,26.9,25.9,26.51,ESE,116,0.0,0.0,96,0.00,,,0.05,WeatherCatV1.02B3,2013-02-21 04:57:00,
2013-02-20 22:00:00,27.0,26.0,26.51,ESE,116,0.0,0.0,96,0.00,,,0.05,WeatherCatV1.02B3,2013-02-21 05:00:00,
2013-02-20 22:05:00,27.2,26.2,26.51,ESE,115,0.0,0.0,96,0.00,,,0.05,WeatherCatV1.02B3,2013-02-21 05:05:00,
2013-02-20 22:10:00,27.2,26.2,26.51,ESE,115,0.0,0.0,96,0.00,,,0.05,WeatherCatV1.02B3,2013-02-21 05:10:00,
2013-02-20 22:15:00,27.3,26.3,26.51,ESE,115,0.0,0.0,96,0.00,,,0.05,WeatherCatV1.02B3,2013-02-21 05:15:00,
2013-02-20 22:20:00,27.2,26.0,26.51,ESE,115,0.0,0.0,95,0.00,,,0.05,WeatherCatV1.02B3,2013-02-21 05:20:00,
2013-02-20 22:25:00,27.1,25.9,26.52,ESE,115,0.0,0.0,95,0.00,,,0.05,WeatherCatV1.02B3,2013-02-21 05:25:00,
2013-02-20 22:30:00,26.9,25.4,26.52,ESE,115,0.0,0.0,94,0.00,,,0.05,WeatherCatV1.02B3,2013-02-21 05:30:00,
2013-02-20 22:35:00,26.8,25.6,26.52,ESE,115,0.0,0.0,95,0.00,,,0.05,WeatherCatV1.02B3,2013-02-21 05:35:00,
2013-02-20 22:40:00,26.8,25.6,26.52,ESE,115,0.0,0.0,95,0.00,,,0.05,WeatherCatV1.02B3,2013-02-21 05:40:00,
2013-02-20 22:45:00,26.8,25.8,26.52,ESE,115,0.0,0.0,96,0.00,,,0.05,WeatherCatV1.02B3,2013-02-21 05:45:00,
2013-02-20 22:50:00,26.9,25.9,26.52,ESE,115,0.0,0.0,96,0.00,,,0.05,WeatherCatV1.02B3,2013-02-21 05:50:00,
2013-02-20 22:55:00,26.8,25.8,26.52,ESE,115,0.0,0.0,96,0.00,,,0.05,WeatherCatV1.02B3,2013-02-21 05:55:00,
2013-02-20 23:00:00,26.8,25.6,26.52,ESE,115,0.0,0.0,95,0.00,,,0.05,WeatherCatV1.02B3,2013-02-21 06:00:00,
2013-02-20 23:05:00,26.7,25.7,26.52,ESE,115,0.0,0.0,96,0.00,,,0.05,WeatherCatV1.02B3,2013-02-21 06:05:00,
2013-02-20 23:10:00,26.6,25.6,26.52,ESE,115,0.0,0.0,96,0.00,,,0.05,WeatherCatV1.02B3,2013-02-21 06:10:00,
2013-02-20 23:11:00,26.6,25.6,26.52,ESE,115,0.0,0.0,96,0.00,,,0.05,WeatherCatV1.02B3,2013-02-21 06:11:00,
2013-02-20 23:16:00,26.6,25.4,26.52,ESE,115,0.0,0.0,95,0.00,,,0.05,WeatherCatV1.02B3,2013-02-21 06:16:00,
2013-02-20 23:21:00,26.5,25.5,26.52,ESE,113,1.0,1.0,96,0.00,,,0.05,WeatherCatV1.02B3,2013-02-21 06:21:00,
2013-02-20 23:26:00,26.6,25.4,26.52,East,87,0.0,2.0,95,0.00,,,0.05,WeatherCatV1.02B3,2013-02-21 06:26:00,
2013-02-20 23:31:00,26.6,25.4,26.52,East,99,0.0,0.0,95,0.00,,,0.05,WeatherCatV1.02B3,2013-02-21 06:31:00,
2013-02-20 23:36:00,26.6,25.1,26.52,East,99,0.0,0.0,94,0.00,,,0.05,WeatherCatV1.02B3,2013-02-21 06:36:00,
2013-02-20 23:41:00,26.4,24.9,26.52,East,99,0.0,0.0,94,0.00,,,0.05,WeatherCatV1.02B3,2013-02-21 06:41:00,
2013-02-20 23:46:00,26.4,24.7,26.52,ESE,108,0.0,0.0,93,0.00,,,0.05,WeatherCatV1.02B3,2013-02-21 06:46:00,
2013-02-20 23:51:00,26.3,24.8,26.52,East,99,0.0,1.0,94,0.00,,,0.05,WeatherCatV1.02B3,2013-02-21 06:51:00,
2013-02-20 23:56:00,26.3,24.8,26.52,East,99,1.0,1.0,94,0.00,,,0.05,WeatherCatV1.02B3,2013-02-21 06:56:00,